Other Public Products
Issued by NWS Grand Forks, ND

Home | Current Version | Previous Version | Graphics & Text | Print | Product List | Glossary On
Versions: 1 2 3 4 5 6 7 8 9 10 11 12 13 14 15 16 17 18 19 20 21 22 23 24 25 26 27 28 29 30 31 32 33 34 35 36 37 38 39 40 41 42 43 44 45 46 47 48 49 50
000
FPUS83 KFGF 201510
OPUFGF
PRAIRIE TO PINES WEATHER ROUNDUP
NATIONAL WEATHER SERVICE EASTERN NORTH DAKOTA/GRAND FORKS ND
900 AM CST SAT JAN 20 2018

 **SATELLITE DATA USED TO AUGMENT SKY COVER AT AUTOMATED STATIONS**
 *****  WEATHER ACROSS EASTERN NORTH DAKOTA  *****

CITY           SKY/WX    TMP DP  RH WIND       PRES   REMARKS
GRAND FORKS    MOCLDY    25  22  88 S6        29.78R WCI  18
GRND FORKS AFB FAIR      28  23  83 W5        29.78R WCI  22
GRND FORKS NWS NOT AVBL
BUXTON         NOT AVBL
DEVILS LAKE    FAIR      25  22  88 W10       29.78R WCI  15
FARGO          CLOUDY    29  26  89 SW9       29.82R WCI  20
WAHPETON ARPT  FAIR      28  27  93 W8        29.85R WCI  20
$$

 *****  WEATHER ACROSS CENTRAL AND WESTERN NORTH DAKOTA  *****

CITY           SKY/WX    TMP DP  RH WIND       PRES   REMARKS
JAMESTOWN      FAIR      33  28  81 W10       29.80R WCI  25
BISMARCK       FAIR      34  30  85 W8        29.84R
MINOT          FAIR      32  23  69 W10       29.76R WCI  24
MINOT AFB      FAIR      27  21  80 W8        29.75R WCI  18
GARRISON         N/A     27  23  85 W7        29.79R WCI  19
WILLISTON      FAIR      25  18  74 SW9       29.79S WCI  15
DICKINSON      FAIR      30  24  78 SW12      29.81R WCI  20
HETTINGER      MOCLDY    31  27  85 NW7       29.86R WCI  24
$$

 *****  OTHER OBSERVATIONS NORTHEAST NORTH DAKOTA  *****

CITY           SKY/WX    TMP DP  RH WIND       PRES   REMARKS
WALHALLA       FAIR      25  25 100 W3        29.76R
LANGDON        FAIR      19  19 100 W5        29.74R WCI  13
CAVALIER         N/A     25  23  93 CALM      29.76R
GRAFTON        FAIR      23  23 100 W6        29.79R WCI  16
CANDO          FAIR      21  21 100 W8        29.78R WCI  12
FORT TOTTEN      N/A     28  24  84 W5        29.95S WCI  23
ROLLA          FAIR      19  19 100 SW8       29.72S WCI   9
RUGBY          FAIR      23  21  93 W10       29.76R WCI  12
 ***** THE ABOVE OBSERVATIONS ARE NON NWS ARE NOT QUALITY
        CONTROLLED AND MAY MIS-REPORT RAIN FOR SNOW...
$$

 *****  OTHER OBSERVATIONS SOUTHEAST NORTH DAKOTA *****

CITY           SKY/WX    TMP DP  RH WIND       PRES   REMARKS
COOPERSTOWN    FAIR      27  25  93 W12       29.79R WCI  16
VALLEY CITY    PTSUNNY   30  30 100 W10       29.82R WCI  21
OAKES            N/A     32  30  93 SW9       29.84R WCI  24
GWINNER          N/A     30  28  93 SW7       29.84R WCI  23
SHEYENNE NWR     N/A     27  27 100 SW3       29.95S
BUFFALO        NOT AVBL
WYNDMERE       NOT AVBL
 ***** THE ABOVE OBSERVATIONS ARE NON NWS ARE NOT QUALITY
       CONTROLLED AND MAY MIS-REPORT RAIN FOR SNOW...
$$

  *****  WEATHER ACROSS NORTHERN MINNESOTA  *****

CITY           SKY/WX    TMP DP  RH WIND       PRES   REMARKS
FLAG ISLAND    CLOUDY    27  25  93 S3        29.74R FOG
WARROAD        FAIR      25  21  86 SW5       29.76R WCI  19
ROSEAU         FAIR      25  21  86 W5        29.76R WCI  19
HALLOCK        FAIR      18  16  93 S3        29.76R
THF RVR FALLS  FAIR      22  20  92 SW5       29.78R WCI  16
HALSTAD        NOT AVBL
FOSSTON        FAIR      21  19  93 S8        29.79S WCI  12
BAUDETTE       FAIR      25  23  92 SW5       29.74R WCI  19
WASKISH        FAIR      27  25  93 SW5       29.77R WCI  21
CROOKSTON      FAIR      21  21 100 SE7       29.79S WCI  13
$$
  *****  WEATHER ACROSS CENTRAL AND WEST MINNESOTA  *****

CITY           SKY/WX    TMP DP  RH WIND       PRES   REMARKS
BEMIDJI        FAIR      26  25  97 SW5       29.78R WCI  20
PARK RAPIDS    CLOUDY    25  22  88 CALM      29.79R FOG
WADENA         FAIR      25  25 100 W5        29.81R WCI  19
DETROIT LAKES  FAIR      27  25  93 CALM      29.81R
MOORHEAD       FAIR      25  21  86 SW7       29.84R WCI  17
FERGUS FALLS   FAIR      25  25 100 CALM      29.84R
ELBOW LAKE     FAIR      27  26  96 S3        29.84R FOG
MORRIS MN      MOCLDY    30  28  93 W6        29.83R WCI  24
STAPLES        MOCLDY    25  25 100 CALM      29.80R
WHEATON        FAIR      34  27  75 SW5       29.88R
$$
  *****  WEATHER ELSEWHERE ACROSS MINNESOTA  *****

CITY           SKY/WX    TMP DP  RH WIND       PRES   REMARKS
DULUTH         MOCLDY    29  27  92 W5        29.79R WCI  24
INTRNTL FALLS  FAIR      27  24  89 SW6       29.75R WCI  20
ELY            FAIR      28  28 100 SW7       29.76R WCI  21
CLOQUET        FAIR      30  27  86 SW6       29.79S WCI  24
BRAINERD       CLOUDY    28  26  92 SW3       29.81R
HIBBING        MOCLDY    21  21 100 CALM      29.78R FOG
ALEXANDRIA     CLOUDY    30  27  88 W6        29.83R WCI  24
SAINT CLOUD    CLOUDY    27  27 100 CALM      29.83R
MINNEAPOLIS    PTSUNNY   30  29  96 CALM      29.87R
$$

  *****  WEATHER ACROSS SOUTH DAKOTA  *****

CITY           SKY/WX    TMP DP  RH WIND       PRES   REMARKS
SIOUX FALLS    MOCLDY    25  24  96 CALM      29.87R
BROOKINGS      FAIR      22  21  96 SW5       29.85R WCI  16
WATERTOWN      CLOUDY    30  29  96 CALM      29.84R
HURON          FAIR      25  24  96 S3        29.87R
SISSETON         N/A     37  29  72 NW7       29.85R
ABERDEEN       CLOUDY    31  29  92 CALM      29.87R
MITCHELL       FAIR      24  23  96 NW5       29.88R WCI  18
PIERRE         NOT AVBL
MOBRIDGE       CLOUDY    35  31  85 CALM      29.83F
RAPID CITY     CLOUDY    34  30  85 NW7       29.89R
$$

  *****  SOME WEATHER IN NEARBY STATES *****

CITY           SKY/WX    TMP DP  RH WIND       PRES   REMARKS
GLASGOW MT     FAIR      15  10  80 SW6       29.82R WCI   6
GREAT FALLS MT FAIR      25  16  68 SW13      29.85R WCI  14
CHEYENNE WY    FAIR      34  23  64 N15G21    29.78R WCI  24
SCOTTSBLUFF NE FAIR      27  24  89 W9        29.84R WCI  18
OMAHA NE       FAIR      28  25  88 CALM      29.85R
DES MOINES IA  FAIR      32  28  85 S3        29.87R
DAVENPORT IA   FAIR      37  30  75 SW5       29.92R
CHICAGO IL     PTSUNNY   36  28  73 SW8       29.91R
EAU CLAIRE WI  FAIR      26  25  96 CALM      29.84F FOG
LA CROSSE WI   FAIR      26  24  92 S5        29.88R FOG     WCI  20
$$

  *****  SOME NATIONAL WEATHER *****

CITY           SKY/WX    TMP DP  RH WIND       PRES   REMARKS
LA GUARDIA NY  PTSUNNY   46  23  40 SW16G22   29.90R
RALEIGH NC     FAIR      40  22  48 W5        30.19R
ATLANTA GA     FAIR      44  23  43 W8        30.27R
NEW ORLEANS LA PTSUNNY   56  53  90 E8        30.24R
OKLAHOMA CITY  PTSUNNY   50  46  86 S23G31    29.86R
ALBUQUERQUE NM FAIR      33  15  47 N5        29.99S
SALT LAKE CITY LGT SNOW  31  30  96 N12       29.90R FOG     WCI  22
LOS ANGELES CA FAIR      54  31  41 NW13G26   29.99R
BOISE ID       CLOUDY    30  25  81 CALM      30.04S
SEATTLE WA     LGT RAIN  41  36  82 S12       30.02S
$$

*** WEATHER ACROSS MANITOBA...SASKATCHEWAN AND ONTARIO ***
                ***ONTARIO***

CITY           SKY/WX    TMP DP  RH WIND       PRES   REMARKS
GERALDTON      PTCLDY     3  -4  72 VRB2      29.78R
THUNDER BAY    CLOUDY    34  30  86 E3        29.74R
SIOUX LOOKOUT  FLURRIES  19  16  86 CALM      29.72R
TORONTO        PTSUNNY   36  27  69 SW13      29.82R
BIG TROUT LK   CLOUDY   -18 -24  76 NW5       29.85R WCI -31
PICKLE LAKE    CRYSTALS  -6  -9  84 E3        29.76R
DRYDEN         CLOUDY    21  18  86 E3        29.71R
KENORA         FLURRIES  23  21  93 CALM      29.72R
$$
                *** MANITOBA***

CITY           SKY/WX    TMP DP  RH WIND       PRES   REMARKS
BRANDON        PTCLDY    14  10  85 SW10      29.71R WCI   1
DAUPHIN        CLOUDY    19  18  93 E6        29.70S WCI  11
ISLAND LAKE    MOCLDY    -6  -9  84 NE7       29.85R WCI -20
PILOT MOUND      N/A     16  14  93 SW5         N/A  WCI   9
THE PAS        LGT SNOW   3  -2  78 E6        29.77R WCI  -8
THOMPSON       FLURRIES  -2  -6  84 VRB2      29.88R
WINNIPEG       PTCLDY    18  14  86 S9        29.75S WCI   6
LYNN LAKE      CLOUDY    -2  -6  84 E5        29.82R WCI -12
CHURCHILL      FLURRIES  -4 -11  71 N13       30.03R WCI -23
GILLAM         FLURRIES   1  -4  78 NE7       29.93R WCI -11
$$
                ***SASKATCHEWAN***

CITY           SKY/WX    TMP DP  RH WIND       PRES   REMARKS
ESTEVAN        PTCLDY    16  12  86 SW9       29.75R WCI   4
KINDERSLEY     PTCLDY    19  16  86 W7        29.72R WCI  10
LLOYDMINSTER   CLOUDY    23  21  93 W8        29.68R WCI  14
PRINCE ALBERT  LGT SNOW  19  16  86 NE8       29.68R WCI   9
REGINA         MOCLDY    23  19  86 W8        29.71R WCI  14
YORKTON        CLOUDY    28  25  86 SW9       29.65R WC



USA.gov is the U.S. government's official web portal to all federal, state and local government web resources and services.